Location: Boiro
(42.6475°N, 8.8834°W)
Time: 17:42:46
(UTC+01:00)

Explorer 7 - Pass Details

Date: 01 December 2021
Orbit: 483 x 674 km, 50.3° (Epoch: 20 January)

Event Time Altitude Azimuth Distance (km) Brightness Sun altitude
Rises 09:18:00 0° 256° (WSW) 2,768 10.0 4.1°
Reaches altitude 10° 09:20:23 10° 263° (W) 1,838 9.1 4.5°
Maximum altitude 09:24:25 47° 337° (NNW) 715 7.1 5.1°
Drops below altitude 10° 09:28:14 10° 53° (NE) 1,740 9.6 5.6°
Sets 09:30:26 0° 59° (ENE) 2,603 10.6 6.0°
